This is the latest recevied weather packets stored in our database for station/object N5JXS. If no packets are shown the sender has not sent any weather packets the latest 10 day(s).
| Time | Temp. | Humidity | Pressure | Rain* | Wind** | Luminosity | Snow |
|---|---|---|---|---|---|---|---|
| 1777179022 | 3.33° C | 65% | 1015 hPa | 0 mm | - | 0 W/m² | - |
| 1777178720 | 3.89° C | 65% | 1014.9 hPa | 0 mm | - | 0 W/m² | - |
| 1777178416 | 3.89° C | 65% | 1015.1 hPa | 0 mm | - | 0 W/m² | - |
| 1777178111 | 3.89° C | 63% | 1015 hPa | 0 mm | - | 0 W/m² | - |
| 1777177810 | 4.44° C | 63% | 1015.1 hPa | 0 mm | - | 0 W/m² | - |
| 1777177506 | 4.44° C | 62% | 1015.3 hPa | 0 mm | - | 0 W/m² | - |
| 1777177202 | 4.44° C | 62% | 1015.1 hPa | 0 mm | - | 0 W/m² | - |
| 1777176899 | 5° C | 61% | 1015 hPa | 0 mm | - | 0 W/m² | - |
| 1777176595 | 5° C | 60% | 1015.4 hPa | 0 mm | - | 0 W/m² | - |
| 1777176291 | 5° C | 60% | 1015.1 hPa | 0 mm | - | 0 W/m² | - |
| 1777175989 | 5.56° C | 59% | 1015.1 hPa | 0 mm | - | 0 W/m² | - |
| 1777175686 | 5.56° C | 58% | 1015.1 hPa | 0 mm | - | 0 W/m² | - |
| 1777175381 | 5.56° C | 58% | 1015.4 hPa | 0 mm | - | 0 W/m² | - |
| 1777175076 | 6.11° C | 57% | 1015.3 hPa | 0 mm | - | 0 W/m² | - |
| 1777174772 | 6.11° C | 57% | 1015.1 hPa | 0 mm | - | 0 W/m² | - |
| 1777174468 | 6.11° C | 56% | 1015.3 hPa | 0 mm | - | 0 W/m² | - |
| 1777174163 | 6.67° C | 55% | 1015.4 hPa | 0 mm | - | 0 W/m² | - |
| 1777173860 | 6.67° C | 54% | 1015.4 hPa | 0 mm | - | 0 W/m² | - |
| 1777173559 | 6.67° C | 53% | 1015.5 hPa | 0 mm | - | 0 W/m² | - |
| 1777173255 | 7.22° C | 53% | 1015.4 hPa | 0 mm | - | 0 W/m² | - |
| 1777172951 | 7.22° C | 52% | 1015.3 hPa | 0 mm | - | 0 W/m² | - |
| 1777172649 | 7.22° C | 52% | 1015.4 hPa | 0 mm | - | 0 W/m² | - |
| 1777172344 | 7.22° C | 52% | 1015.3 hPa | 0 mm | - | 0 W/m² | - |
| 1777172039 | 7.78° C | 51% | 1015 hPa | 0 mm | - | 0 W/m² | - |
| 1777171737 | 7.78° C | 51% | 1014.9 hPa | 0 mm | - | 0 W/m² | - |
* Rain latest hour (hover to see other rain measurements)
** Current wind speed in m/s (hover to see current wind gust speed)